Rochester, NH

10:12 AM EDT on October 23, 2017 (GMT -0400)
Skyhaven

Weather History for KDAW - August, 2013

Change the Weather History Date:

Monday, August 26, 2013

  Actual Average (KPSM) Record (KPSM)
Temperature  
Mean Temperature 72 °F -  
Max Temperature 81 °F 76 °F 96 °F (1993)
Min Temperature 62 °F 57 °F 38 °F (1981)
Cooling Degree Days 6    
Growing Degree Days 22 (Base 50)    
Moisture  
Dew Point 62 °F    
Average Humidity 79    
Maximum Humidity 93    
Minimum Humidity 56    
Precipitation  
Precipitation 0.13 in - - ()
Sea Level Pressure  
Sea Level Pressure 29.98 in    
Wind  
Wind Speed 1 mph (WNW)    
Max Wind Speed 10 mph    
Max Gust Speed -    
Visibility 10 miles    
Events Rain    
Averages and records for this station are not official NWS values.
T = Trace of Precipitation, MM = Missing Value Source: NWS Daily Summary

Daily Weather History Graph

Daily Weather History Graph

Search for Another Location

Airport or City:

Trip Planner

Search our weather history database for the weather conditions in past years. The results will help you decide how hot, cold, wet, or windy it might be!

Date:

Astronomy

Aug. 26, 2013 Rise Set
Actual Time 6:01 AM EDT 7:28 PM EDT
Civil Twilight 5:31 AM EDT 7:58 PM EDT
Nautical Twilight 4:55 AM EDT 8:34 PM EDT
Astronomical Twilight 4:17 AM EDT 9:12 PM EDT
Moon 10:25 PM EDT (8/26) 12:11 PM EDT (8/26)
Length of Visible Light 14h 26m
Length of Day
13h 27m
Waning Gibbous, 67% of the Moon is Illuminated
Aug 26
Waning Gibbous
Aug 28
Last Quarter
Sep 5
New
Sep 12
First Quarter
Sep 19
Full

Hourly Weather History & Observations

Time (EDT) Temp. Heat Index Dew Point Humidity Pressure Visibility Wind Dir Wind Speed Gust Speed Precip Events Conditions
12:51 AM 62.1 °F - 55.9 °F 80% 30.14 in 10.0 mi Calm Calm - N/A   Clear
1:51 AM 63.0 °F - 57.0 °F 81% 30.12 in 10.0 mi Calm Calm - 0.00 in   Partly Cloudy
2:51 AM 63.0 °F - 57.0 °F 81% 30.13 in 10.0 mi WNW 3.5 mph - N/A   Mostly Cloudy
3:51 AM 64.0 °F - 57.0 °F 78% 30.10 in 10.0 mi NW 4.6 mph - 0.00 in   Mostly Cloudy
4:51 AM 63.0 °F - 59.0 °F 87% 30.09 in 10.0 mi Calm Calm - 0.01 in Rain Light Rain
5:51 AM 62.1 °F - 59.0 °F 90% 30.09 in 10.0 mi Calm Calm - 0.03 in Rain Light Rain
6:51 AM 62.1 °F - 60.1 °F 93% 30.05 in 10.0 mi Calm Calm - 0.09 in Rain Light Rain
7:51 AM 62.1 °F - 60.1 °F 93% 30.05 in 10.0 mi Calm Calm - 0.00 in Rain Light Rain
8:51 AM 63.0 °F - 60.1 °F 90% 30.03 in 10.0 mi Calm Calm - 0.00 in   Overcast
9:51 AM 64.0 °F - 62.1 °F 93% 30.01 in 10.0 mi Calm Calm - N/A   Overcast
10:51 AM 71.1 °F - 63.0 °F 75% 29.99 in 10.0 mi Variable 3.5 mph - N/A   Partly Cloudy
1:51 PM 81.0 °F 82.5 °F 64.0 °F 56% 29.92 in 10.0 mi WNW 10.4 mph - N/A   Mostly Cloudy
2:51 PM 78.1 °F - 64.0 °F 62% 29.91 in 10.0 mi Variable 4.6 mph - N/A   Overcast
3:51 PM 80.1 °F 82.1 °F 66.0 °F 62% 29.89 in 10.0 mi Variable 3.5 mph - N/A   Overcast
4:51 PM 78.1 °F - 64.9 °F 64% 29.88 in 10.0 mi Variable 3.5 mph - N/A   Partly Cloudy
5:51 PM 77.0 °F - 66.0 °F 69% 29.88 in 10.0 mi Calm Calm - N/A   Overcast
6:51 PM 75.9 °F - 66.0 °F 71% 29.88 in 10.0 mi Calm Calm - N/A   Partly Cloudy
7:51 PM 73.0 °F - 66.0 °F 79% 29.87 in 10.0 mi Calm Calm - N/A   Clear
8:51 PM 72.0 °F - 66.0 °F 81% 29.87 in 10.0 mi West 4.6 mph - N/A   Clear
9:51 PM 72.0 °F - 66.0 °F 81% 29.86 in 10.0 mi Calm Calm - N/A   Clear
10:51 PM 69.1 °F - 66.0 °F 90% 29.87 in 8.0 mi Calm Calm - N/A   Clear
11:51 PM 69.1 °F - 64.9 °F 87% 29.86 in 8.0 mi Calm Calm - N/A   Clear